This is the latest recevied weather packets stored in our database for station/object KC5CAM-13. If no packets are shown the sender has not sent any weather packets the latest 10 day(s).
| Time | Temp. | Humidity | Pressure | Rain* | Wind** | Luminosity | Snow |
|---|---|---|---|---|---|---|---|
| 1777854623 | 24.44° C | 41% | 1015.7 hPa | 0 mm | - | 13 W/m² | - |
| 1777854320 | 24.44° C | 43% | 1015.7 hPa | 0 mm | - | 18 W/m² | - |
| 1777854017 | 25° C | 40% | 1015.7 hPa | 0 mm | - | 25 W/m² | - |
| 1777853715 | 25° C | 39% | 1016 hPa | 0 mm | - | 29 W/m² | - |
| 1777853411 | 25° C | 39% | 1015.7 hPa | 0 mm | - | 32 W/m² | - |
| 1777853108 | 25.56° C | 39% | 1015.8 hPa | 0 mm | - | 35 W/m² | - |
| 1777852805 | 25.56° C | 39% | 1015.8 hPa | 0 mm | - | 37 W/m² | - |
| 1777852504 | 25.56° C | 37% | 1016 hPa | 0 mm | - | 42 W/m² | - |
| 1777852200 | 26.11° C | 37% | 1015.8 hPa | 0 mm | - | 63 W/m² | - |
| 1777851898 | 26.11° C | 35% | 1015.7 hPa | 0 mm | - | 62 W/m² | - |
| 1777851596 | 26.11° C | 35% | 1016.3 hPa | 0 mm | - | 44 W/m² | - |
| 1777851292 | 26.67° C | 35% | 1016.1 hPa | 0 mm | - | 80 W/m² | - |
| 1777850988 | 26.67° C | 36% | 1015.8 hPa | 0 mm | - | 176 W/m² | - |
| 1777850685 | 26.67° C | 35% | 1016 hPa | 0 mm | - | 187 W/m² | - |
| 1777850383 | 26.67° C | 36% | 1016.3 hPa | 0 mm | - | 201 W/m² | - |
| 1777850080 | 26.11° C | 35% | 1016.2 hPa | 0 mm | - | 174 W/m² | - |
| 1777849777 | 26.11° C | 35% | 1016.2 hPa | 0 mm | - | 124 W/m² | - |
| 1777849473 | 26.67° C | 34% | 1016.2 hPa | 0 mm | - | 127 W/m² | - |
| 1777849171 | 26.67° C | 33% | 1016.4 hPa | 0 mm | - | 191 W/m² | - |
| 1777848868 | 26.67° C | 33% | 1016.5 hPa | 0 mm | - | 240 W/m² | - |
| 1777848563 | 26.67° C | 33% | 1016.5 hPa | 0 mm | - | 259 W/m² | - |
| 1777848260 | 27.22° C | 32% | 1016.5 hPa | 0 mm | - | 285 W/m² | - |
| 1777847958 | 27.22° C | 34% | 1016.4 hPa | 0 mm | - | 285 W/m² | - |
| 1777847656 | 27.22° C | 33% | 1016.6 hPa | 0 mm | - | 289 W/m² | - |
| 1777847356 | 27.22° C | 35% | 1016.3 hPa | 0 mm | - | 320 W/m² | - |
* Rain latest hour (hover to see other rain measurements)
** Current wind speed in m/s (hover to see current wind gust speed)